When you browse on this site, cookies collect data to enhance your experience and personalize the content and advertising you see.
Visit our Privacy Policy to learn more. By continuing to use the site, you agree to this use of cookies and data.
  • In Czech Republic
  • List of Countries
  • For 7 days
  • Water Temperature
  • Weather Map
  • Weather Widgets
  • user-avatar
    Login

    Hourly Weather Allah-Yun

    Today, 27 May, Wednesday

    Time Temperature Precipitation Wind Pressure Humidity
    00:00 +8°C° 0.1 mm 0 mps 696 mmHg 87%
    01:00 +9°C° 0.1 mm 0 mps 696 mmHg 86%
    02:00 +10°C° 0.1 mm 1 mps 696 mmHg 84%
    03:00 +11°C° 0 mm 1 mps 696 mmHg 82%
    04:00 +12°C° 0.1 mm 1 mps 696 mmHg 81%
    05:00 +12°C° 0.1 mm 1 mps 696 mmHg 80%
    06:00 +13°C° 0.1 mm 1 mps 696 mmHg 80%
    07:00 +13°C° 0 mm 1 mps 696 mmHg 76%
    08:00 +14°C° 0 mm 1 mps 696 mmHg 72%
    09:00 +15°C° 0 mm 1 mps 697 mmHg 74%
    10:00 +16°C° 0.2 mm 2 mps 696 mmHg 71%
    11:00 +16°C° 0.2 mm 2 mps 696 mmHg 69%
    12:00 +17°C° 0.2 mm 2 mps 696 mmHg 66%
    13:00 +17°C° 1.2 mm 3 mps 696 mmHg 70%
    14:00 +16°C° 1.2 mm 3 mps 696 mmHg 73%
    15:00 +14°C° 1.2 mm 3 mps 695 mmHg 76%
    16:00 +14°C° 0.5 mm 3 mps 695 mmHg 77%
    17:00 +14°C° 0.5 mm 2 mps 695 mmHg 78%
    18:00 +14°C° 0.5 mm 2 mps 696 mmHg 79%
    19:00 +13°C° 1.5 mm 2 mps 696 mmHg 84%
    20:00 +12°C° 1.5 mm 2 mps 696 mmHg 89%
    21:00 +9°C° 1.5 mm 3 mps 696 mmHg 94%
    22:00 +9°C° 0.1 mm 2 mps 696 mmHg 94%
    23:00 +8°C° 0.1 mm 2 mps 696 mmHg 94%

    Tomorrow, 28 May, Thursday

    Time Temperature Precipitation Wind Pressure Humidity
    00:00 +8°C° 0.1 mm 1 mps 696 mmHg 95%
    01:00 +9°C° 0.2 mm 1 mps 696 mmHg 94%
    02:00 +9°C° 0.2 mm 1 mps 696 mmHg 94%
    03:00 +9°C° 0.2 mm 1 mps 696 mmHg 93%
    04:00 +9°C° 0.3 mm 1 mps 696 mmHg 92%
    05:00 +9°C° 0.3 mm 2 mps 696 mmHg 90%
    06:00 +9°C° 0.3 mm 2 mps 696 mmHg 88%
    07:00 +10°C° 0.1 mm 2 mps 696 mmHg 84%
    08:00 +12°C° 0.1 mm 2 mps 696 mmHg 81%
    09:00 +13°C° 0.1 mm 2 mps 696 mmHg 78%
    10:00 +13°C° 0 mm 3 mps 696 mmHg 73%
    11:00 +14°C° 0 mm 3 mps 696 mmHg 69%
    12:00 +16°C° 0 mm 3 mps 695 mmHg 65%
    13:00 +16°C° 0 mm 3 mps 696 mmHg 63%
    14:00 +17°C° 0 mm 4 mps 696 mmHg 62%
    15:00 +17°C° 0 mm 4 mps 696 mmHg 60%
    16:00 +15°C° 0 mm 4 mps 696 mmHg 63%
    17:00 +14°C° 0 mm 3 mps 696 mmHg 65%
    18:00 +14°C° 0 mm 3 mps 695 mmHg 68%
    19:00 +12°C° 1.7 mm 3 mps 696 mmHg 75%
    20:00 +12°C° 1.7 mm 2 mps 696 mmHg 83%
    21:00 +10°C° 1.7 mm 2 mps 696 mmHg 91%
    22:00 +9°C° 0.8 mm 2 mps 696 mmHg 92%
    23:00 +9°C° 0.8 mm 2 mps 695 mmHg 93%

    Day after tomorrow, 29 May, Friday

    Time Temperature Precipitation Wind Pressure Humidity
    00:00 +9°C° 0.8 mm 2 mps 695 mmHg 94%
    01:00 +9°C° 1.4 mm 2 mps 696 mmHg 94%
    02:00 +8°C° 1.4 mm 2 mps 696 mmHg 95%
    03:00 +8°C° 1.4 mm 2 mps 696 mmHg 95%
    04:00 +8°C° 1.6 mm 2 mps 697 mmHg 95%
    05:00 +7°C° 1.6 mm 2 mps 697 mmHg 95%
    06:00 +6°C° 1.6 mm 2 mps 697 mmHg 95%
    07:00 +7°C° 0.4 mm 2 mps 698 mmHg 88%
    08:00 +7°C° 0.4 mm 3 mps 698 mmHg 81%
    09:00 +7°C° 0.4 mm 3 mps 699 mmHg 74%
    10:00 +6°C° 0.1 mm 4 mps 699 mmHg 71%
    11:00 +6°C° 0.1 mm 4 mps 699 mmHg 68%
    12:00 +6°C° 0.1 mm 5 mps 699 mmHg 64%
    13:00 +6°C° 0.1 mm 5 mps 699 mmHg 62%
    14:00 +6°C° 0.1 mm 4 mps 699 mmHg 60%
    15:00 +6°C° 0.1 mm 4 mps 699 mmHg 58%
    16:00 +5°C° 0.1 mm 4 mps 699 mmHg 60%
    17:00 +5°C° 0.1 mm 5 mps 699 mmHg 62%
    18:00 +3°C° 0.1 mm 5 mps 699 mmHg 65%
    19:00 +3°C° 0.1 mm 4 mps 700 mmHg 71%
    20:00 +2°C° 0.1 mm 3 mps 700 mmHg 76%
    21:00 +2°C° 0.1 mm 2 mps 700 mmHg 82%
    22:00 +2°C° 0.1 mm 2 mps 700 mmHg 83%
    23:00 +1°C° 0.1 mm 2 mps 701 mmHg 85%

    30 May, Saturday

    Time Temperature Precipitation Wind Pressure Humidity
    00:00 0°C° 0.1 mm 3 mps 701 mmHg 86%
    01:00 0°C° 0 mm 3 mps 701 mmHg 83%
    02:00 -1°C° 0 mm 2 mps 701 mmHg 81%
    03:00 -1°C° 0 mm 2 mps 701 mmHg 79%
    04:00 0°C° 0 mm 3 mps 701 mmHg 74%
    05:00 -1°C° 0 mm 4 mps 702 mmHg 68%
    06:00 0°C° 0 mm 4 mps 702 mmHg 63%
    07:00 +1°C° 0 mm 5 mps 702 mmHg 59%
    08:00 +2°C° 0 mm 5 mps 702 mmHg 56%
    09:00 +3°C° 0 mm 6 mps 702 mmHg 52%
    10:00 +4°C° 0 mm 6 mps 702 mmHg 49%
    11:00 +5°C° 0 mm 7 mps 702 mmHg 47%
    12:00 +5°C° 0 mm 7 mps 702 mmHg 44%
    13:00 +6°C° 0.1 mm 7 mps 702 mmHg 44%
    14:00 +7°C° 0.1 mm 6 mps 702 mmHg 44%
    15:00 +8°C° 0.1 mm 6 mps 702 mmHg 44%
    16:00 +7°C° 0.1 mm 6 mps 702 mmHg 46%
    17:00 +7°C° 0.1 mm 6 mps 702 mmHg 48%
    18:00 +7°C° 0.1 mm 5 mps 702 mmHg 50%
    19:00 +5°C° 0 mm 4 mps 702 mmHg 59%
    20:00 +4°C° 0 mm 2 mps 703 mmHg 68%
    21:00 +3°C° 0 mm 1 mps 703 mmHg 77%
    22:00 +3°C° 0 mm 1 mps 703 mmHg 80%
    23:00 +2°C° 0 mm 1 mps 703 mmHg 83%

    31 May, Sunday

    Time Temperature Precipitation Wind Pressure Humidity
    00:00 +1°C° 0 mm 0 mps 703 mmHg 86%
    01:00 +1°C° 0 mm 0 mps 703 mmHg 86%
    02:00 +1°C° 0 mm 0 mps 703 mmHg 86%
    03:00 +2°C° 0 mm 1 mps 703 mmHg 87%
    04:00 +3°C° 0 mm 1 mps 703 mmHg 79%
    05:00 +5°C° 0 mm 1 mps 704 mmHg 71%
    06:00 +7°C° 0 mm 1 mps 704 mmHg 63%
    07:00 +8°C° 0.1 mm 1 mps 704 mmHg 57%
    08:00 +9°C° 0.1 mm 1 mps 704 mmHg 52%
    09:00 +10°C° 0.1 mm 1 mps 704 mmHg 46%
    10:00 +11°C° 0.2 mm 1 mps 704 mmHg 46%
    11:00 +11°C° 0.2 mm 1 mps 704 mmHg 45%
    12:00 +12°C° 0.2 mm 1 mps 704 mmHg 44%
    13:00 +12°C° 0.4 mm 1 mps 703 mmHg 46%
    14:00 +12°C° 0.4 mm 1 mps 703 mmHg 49%
    15:00 +12°C° 0.4 mm 1 mps 703 mmHg 51%
    16:00 +12°C° 0.3 mm 1 mps 703 mmHg 51%
    17:00 +11°C° 0.3 mm 1 mps 703 mmHg 51%
    18:00 +10°C° 0.3 mm 0 mps 703 mmHg 52%
    19:00 +9°C° 0.2 mm 0 mps 703 mmHg 59%
    20:00 +7°C° 0.2 mm 0 mps 703 mmHg 67%
    21:00 +6°C° 0.2 mm 0 mps 703 mmHg 75%
    22:00 +5°C° 0 mm 0 mps 703 mmHg 76%
    23:00 +5°C° 0 mm 0 mps 703 mmHg 77%

    1 June, Monday

    Time Temperature Precipitation Wind Pressure Humidity
    00:00 +5°C° 0 mm 0 mps 703 mmHg 78%
    01:00 +6°C° 0 mm 1 mps 703 mmHg 80%
    02:00 +6°C° 0 mm 1 mps 703 mmHg 83%
    03:00 +6°C° 0 mm 1 mps 703 mmHg 85%
    04:00 +7°C° 0 mm 1 mps 704 mmHg 83%
    05:00 +8°C° 0 mm 1 mps 704 mmHg 80%
    06:00 +9°C° 0 mm 1 mps 704 mmHg 77%
    07:00 +10°C° 0.2 mm 1 mps 704 mmHg 71%
    08:00 +11°C° 0.2 mm 1 mps 704 mmHg 64%
    09:00 +12°C° 0.2 mm 1 mps 704 mmHg 57%
    10:00 +13°C° 0.2 mm 1 mps 704 mmHg 55%
    11:00 +13°C° 0.2 mm 1 mps 703 mmHg 53%
    12:00 +14°C° 0.2 mm 1 mps 703 mmHg 51%
    13:00 +14°C° 0.1 mm 1 mps 703 mmHg 49%
    14:00 +14°C° 0.1 mm 2 mps 702 mmHg 48%
    15:00 +15°C° 0.1 mm 2 mps 702 mmHg 46%
    16:00 +15°C° 0.1 mm 2 mps 702 mmHg 46%
    17:00 +14°C° 0.1 mm 2 mps 702 mmHg 46%
    18:00 +14°C° 0.1 mm 1 mps 702 mmHg 47%
    19:00 +12°C° 0 mm 1 mps 702 mmHg 54%
    20:00 +11°C° 0 mm 1 mps 702 mmHg 61%
    21:00 +8°C° 0 mm 0 mps 701 mmHg 67%
    22:00 +7°C° 0 mm 0 mps 701 mmHg 68%
    23:00 +7°C° 0 mm 0 mps 702 mmHg 69%
    Show more